Buffalo, MN

7:32 PM CDT on April 22, 2018 (GMT -0500)
Buffalo

Weather History for KCFE - August, 2012

Change the Weather History Date:

Tuesday, August 21, 2012

  Actual Average (KMIC) Record (KMIC)
Temperature  
Mean Temperature 64 °F -  
Max Temperature 77 °F 77 °F 88 °F (2013)
Min Temperature 50 °F 57 °F 37 °F (2004)
Degree Days  
Heating Degree Days 2    
Growing Degree Days 14 (Base 50)    
Moisture  
Dew Point 51 °F    
Average Humidity 66    
Maximum Humidity 95    
Minimum Humidity 37    
Precipitation  
Precipitation 0.00 in - - ()
Sea Level Pressure  
Sea Level Pressure 30.05 in    
Wind  
Wind Speed 2 mph (South)    
Max Wind Speed 8 mph    
Max Gust Speed -    
Visibility 10 miles    
Events      
Averages and records for this station are not official NWS values.
T = Trace of Precipitation, MM = Missing Value Source: NWS Daily Summary

Daily Weather History Graph

Daily Weather History Graph

Search for Another Location

Airport or City:

Astronomy

Aug. 21, 2012 Rise Set
Actual Time 6:24 AM CDT 8:11 PM CDT
Civil Twilight 5:53 AM CDT 8:42 PM CDT
Nautical Twilight 5:14 AM CDT 9:20 PM CDT
Astronomical Twilight 4:33 AM CDT 10:01 PM CDT
Moon 11:12 AM CDT (8/21) 9:54 PM CDT (8/21)
Length of Visible Light 14h 49m
Length of Day
13h 46m
Waxing Crescent, 19% of the Moon is Illuminated
Aug 21
Waxing Crescent
Aug 24
First Quarter
Aug 31
Full
Sep 8
Last Quarter
Sep 15
New

Hourly Weather History & Observations

Time (CDT) Temp. Dew Point Humidity Pressure Visibility Wind Dir Wind Speed Gust Speed Precip Events Conditions
12:13 AM 54.9 °F 51.1 °F 87% 30.04 in 10.0 mi Calm Calm - N/A   Clear
12:33 AM 53.8 °F 50.9 °F 90% 30.05 in 10.0 mi Calm Calm - N/A   Clear
1:13 AM 53.2 °F 50.2 °F 89% 30.05 in 10.0 mi Calm Calm - N/A   Clear
1:33 AM 52.9 °F 49.8 °F 89% 30.05 in 10.0 mi Calm Calm - N/A   Clear
1:53 AM 51.8 °F 49.3 °F 91% 30.05 in 10.0 mi Calm Calm - N/A   Clear
2:13 AM 52.2 °F 49.6 °F 91% 30.05 in 10.0 mi Calm Calm - N/A   Clear
2:33 AM 51.8 °F 49.3 °F 91% 30.05 in 10.0 mi Calm Calm - N/A   Clear
2:53 AM 51.6 °F 48.9 °F 90% 30.05 in 10.0 mi Calm Calm - N/A   Clear
3:14 AM 51.3 °F 48.6 °F 90% 30.05 in 10.0 mi Calm Calm - N/A   Clear
3:33 AM 50.4 °F 48.2 °F 92% 30.05 in 10.0 mi Calm Calm - N/A   Clear
3:53 AM 51.3 °F 48.9 °F 92% 30.05 in 10.0 mi Calm Calm - N/A   Clear
4:14 AM 51.1 °F 48.6 °F 91% 30.05 in 10.0 mi Calm Calm - N/A   Clear
4:33 AM 50.9 °F 48.9 °F 93% 30.05 in 10.0 mi Calm Calm - N/A   Clear
4:53 AM 50.2 °F 48.2 °F 93% 30.06 in 10.0 mi Calm Calm - N/A   Clear
5:14 AM 50.5 °F 49.1 °F 95% 30.06 in 10.0 mi Calm Calm - N/A   Clear
5:33 AM 51.4 °F 49.1 °F 92% 30.06 in 10.0 mi Calm Calm - N/A   Clear
5:53 AM 51.4 °F 49.5 °F 93% 30.06 in 10.0 mi Calm Calm - N/A   Clear
6:14 AM 50.9 °F 48.7 °F 92% 30.06 in 10.0 mi Calm Calm - N/A   Clear
6:33 AM 50.0 °F 48.0 °F 93% 30.07 in 10.0 mi Calm Calm - N/A   Clear
6:53 AM 50.0 °F 47.8 °F 92% 30.07 in 10.0 mi Calm Calm - N/A   Clear
7:14 AM 51.4 °F 49.1 °F 92% 30.08 in 10.0 mi Calm Calm - N/A   Clear
7:33 AM 54.1 °F 50.5 °F 88% 30.08 in 10.0 mi Calm Calm - N/A   Clear
7:53 AM 56.5 °F 52.7 °F 87% 30.08 in 10.0 mi Calm Calm - N/A   Clear
8:14 AM 59.5 °F 51.8 °F 76% 30.09 in 10.0 mi Calm Calm - N/A   Clear
8:33 AM 60.4 °F 50.9 °F 71% 30.08 in 10.0 mi South 3.5 mph - N/A   Clear
8:53 AM 61.9 °F 50.7 °F 67% 30.09 in 10.0 mi SSW 4.6 mph - N/A   Clear
9:14 AM 63.0 °F 51.8 °F 67% 30.09 in 10.0 mi SSW 3.5 mph - N/A   Clear
9:33 AM 63.9 °F 52.7 °F 67% 30.09 in 10.0 mi South 3.5 mph - N/A   Clear
9:53 AM 65.8 °F 54.0 °F 65% 30.09 in 10.0 mi SSW 4.6 mph - N/A   Clear
10:13 AM 67.8 °F 51.1 °F 55% 30.09 in 10.0 mi South 4.6 mph - N/A   Clear
10:33 AM 69.3 °F 51.1 °F 52% 30.08 in 10.0 mi South 5.8 mph - N/A   Clear
10:54 AM 70.2 °F 50.7 °F 50% 30.09 in 10.0 mi South 4.6 mph - N/A   Clear
11:13 AM 71.1 °F 50.0 °F 47% 30.09 in 10.0 mi South 4.6 mph - N/A   Clear
11:33 AM 72.3 °F 49.1 °F 44% 30.09 in 10.0 mi South 3.5 mph - N/A   Clear
11:54 AM 73.2 °F 49.5 °F 43% 30.09 in 10.0 mi South 6.9 mph - N/A   Clear
12:13 PM 73.6 °F 49.1 °F 42% 30.08 in 10.0 mi South 4.6 mph - N/A   Clear
12:33 PM 74.7 °F 47.5 °F 38% 30.07 in 10.0 mi South 4.6 mph - N/A   Clear
12:54 PM 75.0 °F 47.5 °F 38% 30.07 in 10.0 mi South 6.9 mph - N/A   Clear
1:13 PM 75.4 °F 47.8 °F 38% 30.07 in 10.0 mi South 4.6 mph - N/A   Clear
1:33 PM 76.1 °F 48.0 °F 37% 30.06 in 10.0 mi South 5.8 mph - N/A   Clear
1:54 PM 76.1 °F 48.4 °F 38% 30.06 in 10.0 mi South 8.1 mph - N/A   Clear
2:13 PM 76.3 °F 48.9 °F 38% 30.06 in 10.0 mi South 3.5 mph - N/A   Clear
2:33 PM 76.8 °F 49.5 °F 38% 30.06 in 10.0 mi South 8.1 mph - N/A   Clear
2:53 PM 76.1 °F 49.6 °F 39% 30.05 in 10.0 mi SSE 3.5 mph - N/A   Clear
3:13 PM 77.0 °F 50.9 °F 40% 30.05 in 10.0 mi SW 3.5 mph - N/A   Clear
3:34 PM 76.8 °F 50.0 °F 39% 30.05 in 10.0 mi SSW 4.6 mph - N/A   Clear
3:53 PM 77.0 °F 50.5 °F 39% 30.04 in 10.0 mi SW 4.6 mph - N/A   Clear
4:13 PM 77.0 °F 50.9 °F 40% 30.04 in 10.0 mi WSW 4.6 mph - N/A   Clear
4:53 PM 77.4 °F 52.2 °F 41% 30.03 in 10.0 mi South 4.6 mph - N/A   Clear
5:14 PM 77.0 °F 51.6 °F 41% 30.03 in 10.0 mi SW 4.6 mph - N/A   Clear
5:33 PM 77.2 °F 52.2 °F 42% 30.03 in 10.0 mi SSW 5.8 mph - N/A   Clear
5:53 PM 77.5 °F 51.6 °F 40% 30.03 in 10.0 mi South 6.9 mph - N/A   Clear
6:14 PM 77.0 °F 51.4 °F 41% 30.02 in 10.0 mi South 5.8 mph - N/A   Clear
6:33 PM 77.0 °F 52.5 °F 42% 30.01 in 10.0 mi South 5.8 mph - N/A   Clear
6:53 PM 76.3 °F 52.9 °F 44% 30.01 in 10.0 mi South 4.6 mph - N/A   Clear
7:13 PM 75.9 °F 55.0 °F 48% 30.01 in 10.0 mi SSE 3.5 mph - N/A   Clear
7:33 PM 74.3 °F 54.7 °F 50% 30.01 in 10.0 mi SSE 3.5 mph - N/A   Clear
7:53 PM 72.5 °F 56.3 °F 57% 30.00 in 10.0 mi Calm Calm - N/A   Clear
8:13 PM 70.5 °F 55.8 °F 59% 30.00 in 10.0 mi SE 3.5 mph - N/A   Clear
8:33 PM 68.9 °F 56.7 °F 65% 30.00 in 10.0 mi SE 3.5 mph - N/A   Clear
8:53 PM 67.5 °F 55.8 °F 66% 30.00 in 10.0 mi Calm Calm - N/A   Clear
9:13 PM 65.8 °F 55.9 °F 70% 30.01 in 10.0 mi Calm Calm - N/A   Clear
9:33 PM 65.5 °F 55.8 °F 71% 30.01 in 10.0 mi Calm Calm - N/A   Clear
9:53 PM 63.7 °F 55.8 °F 75% 30.01 in 10.0 mi Calm Calm - N/A   Clear
10:13 PM 63.7 °F 55.4 °F 74% 30.00 in 10.0 mi Calm Calm - N/A   Clear
10:33 PM 62.4 °F 55.0 °F 77% 30.00 in 10.0 mi Calm Calm - N/A   Clear
11:13 PM 62.1 °F 55.0 °F 78% 30.00 in 10.0 mi Calm Calm - N/A   Clear
11:53 PM 61.9 °F 54.5 °F 77% 29.99 in 10.0 mi Calm Calm - N/A   Clear